[[{"header":{"parameterUnit":"m.s-1","parameterCategory":1,"la1":30.2991,"la2":30.254,"lo1":-89.0895,"lo2":-89.0444,"dy":0.0017,"dx":0.0017,"nx":28,"ny":28,"refTime":"2023-04-01T21:00:00:Z","depth":0,"parameterNumber":2,"parameterNumberName":"U-component_of_WINDS"},"data":[0,0,0,0,0,0,0,0,0,0,0,0,0,0,0,0,0,0,0,0,0,0,0,0,0,0,0,0,0,0,0,0,0,0,0,0,0,0,0,0,0,0,0,0,0,0,0,0,0,0,0,0,0,0,0,0,0,0,-2.2348,-2.2349,0,-2.243,-2.243,-2.2431,-2.2484,-2.2484,-2.2485,-2.2485,-2.2568,-2.257,-2.2572,0,0,0,0,0,0,0,0,0,0,0,0,0,-2.2239,-2.224,-2.2348,-2.2349,-2.235,-2.2429,-2.2431,-2.2432,-2.2484,-2.2484,-2.2485,-2.2485,-2.2568,-2.257,-2.2572,0,0,0,0,0,0,0,0,0,0,0,0,0,-2.23,-2.2241,-2.2348,-2.2386,-2.239,-2.2429,-2.2431,-2.2432,-2.2484,-2.2484,-2.2485,-2.2485,-2.2567,-2.257,-2.2573,-2.258,0,0,-2.2581,-2.2583,0,0,0,0,0,0,0,0,-2.2296,-2.2304,-2.2379,-2.2383,-2.2388,-2.2447,-2.2422,-2.2482,-2.2484,-2.2448,-2.2485,-2.2486,-2.2528,-2.2534,-2.2548,-2.2584,-2.2588,-2.2582,-2.2583,-2.2584,-2.2585,0,0,0,0,0,0,0,-2.2292,-2.23,-2.2381,-2.238,-2.2386,-2.2399,-2.2408,-2.2434,-2.2484,-2.2452,-2.2456,-2.2464,-2.253,-2.2545,-2.255,-2.2589,-2.2581,-2.2584,-2.2586,-2.2587,-2.2635,-2.2635,0,0,0,0,0,0,-2.2282,-2.2297,-2.2378,-2.2383,-2.2342,-2.2401,-2.2411,-2.2428,-2.2484,-2.2493,-2.2464,-2.2467,-2.254,-2.2547,-2.2553,-2.2566,-2.2584,-2.2587,-2.2589,-2.2635,-2.2635,-2.2634,0,0,0,0,0,0,-2.2279,-2.2288,-2.2375,-2.2341,-2.2353,-2.2402,-2.242,-2.2429,-2.2444,-2.2493,-2.2503,-2.247,-2.2541,-2.2549,-2.2573,-2.2569,-2.2588,-2.2591,-2.2636,-2.2635,-2.2635,-2.259,0,0,0,0,0,0,-2.2276,-2.2287,-2.2291,-2.2341,-2.2354,-2.2393,-2.242,-2.243,-2.2449,-2.2453,-2.2501,-2.251,-2.2542,-2.2568,-2.2576,-2.2573,-2.2593,-2.2637,-2.2636,-2.2635,-2.2592,-2.2588,-2.2584,0,0,0,0,0,-2.2272,-2.2275,-2.229,-2.23,-2.236,-2.2392,-2.24,-2.2437,-2.2448,-2.2452,-2.2484,-2.2508,-2.2568,-2.257,-2.2579,-2.2578,-2.2637,-2.2636,-2.2635,-2.2594,-2.2589,-2.2584,0,0,0,0,0,0,-2.2223,-2.2282,-2.23,-2.232,-2.2351,-2.2401,-2.2407,-2.243,-2.2459,-2.2461,-2.2506,-2.2516,-2.2535,-2.2559,-2.256,-2.2588,-2.2606,-2.2606,-2.2571,-2.2567,-2.2563,-2.2556,-2.2596,0,0,0,0,0,-2.2215,-2.2237,-2.2287,-2.2299,-2.2314,-2.2358,-2.2373,-2.2399,-2.2433,-2.2446,-2.2479,-2.2511,-2.2537,-2.2554,-2.258,-2.2596,-2.2607,-2.2599,-2.2595,-2.2592,-2.2592,-2.2601,-2.2598,-2.2631,-2.2631,-2.2631,0,0,-2.2198,-2.2233,-2.2244,-2.2291,-2.2318,-2.2339,-2.2368,-2.239,-2.2406,-2.2449,-2.2473,-2.2499,-2.2538,-2.2557,-2.2567,-2.2577,-2.2585,-2.2591,-2.2588,-2.2589,-2.26,-2.2596,-2.2594,-2.2631,-2.2631,-2.2631,0,0,-2.2178,-2.2206,-2.222,-2.2246,-2.2286,-2.2315,-2.2318,-2.2365,-2.2384,-2.2409,-2.2442,-2.2462,-2.2506,-2.2532,-2.2551,-2.254,-2.2563,-2.2547,-2.2527,-2.2535,-2.2533,-2.2531,-2.2526,-2.2524,-2.2547,-2.2547,-2.2547,0,-2.2151,-2.2185,-2.2223,-2.2243,-2.2262,-2.2302,-2.2315,-2.2339,-2.2386,-2.2399,-2.241,-2.2465,-2.2494,-2.252,-2.2517,-2.2531,-2.2536,-2.2541,-2.253,-2.2528,-2.2527,-2.2523,-2.2521,-2.2545,-2.2545,-2.2545,-2.2545,0,-2.215,-2.2172,-2.2178,-2.2222,-2.2242,-2.2258,-2.2299,-2.2315,-2.2339,-2.2366,-2.2391,-2.2427,-2.2462,-2.247,-2.2493,-2.2499,-2.2504,-2.2522,-2.254,-2.2521,-2.2517,-2.2516,-2.2541,-2.2542,-2.2543,-2.2543,0,0,-2.2101,-2.2166,-2.2167,-2.2187,-2.2235,-2.2253,-2.2271,-2.2304,-2.2317,-2.2348,-2.2363,-2.24,-2.2417,-2.2438,-2.2465,-2.2472,-2.246,-2.249,-2.2491,-2.2482,-2.2467,-2.2453,-2.245,-2.2476,-2.2476,-2.2476,-2.2464,0,-2.2087,-2.2121,-2.2156,-2.2178,-2.2198,-2.2237,-2.2252,-2.2283,-2.2309,-2.2331,-2.2361,-2.2385,-2.2406,-2.2419,-2.2428,-2.246,-2.2458,-2.2461,-2.2491,-2.2491,-2.2479,-2.2449,-2.2434,-2.242,-2.2463,-2.2463,-2.2463,0,-2.2076,-2.2104,-2.2127,-2.2172,-2.2182,-2.2195,-2.2228,-2.2249,-2.2284,-2.2303,-2.2326,-2.2355,-2.2375,-2.2392,-2.2421,-2.2422,-2.2437,-2.2454,-2.2454,-2.2458,-2.2475,-2.245,-2.2417,-2.2414,-2.2461,-2.2461,-2.2462,0,-2.2036,-2.2081,-2.21,-2.2116,-2.2169,-2.2177,-2.22,-2.2236,-2.2253,-2.2283,-2.2294,-2.2326,-2.2343,-2.2366,-2.2402,-2.2411,-2.2426,-2.2447,-2.2442,-2.2441,-2.2443,-2.2442,-2.241,-2.2454,-2.2454,-2.2454,-2.2454,0,-2.2016,-2.2029,-2.2083,-2.2095,-2.211,-2.215,-2.2164,-2.219,-2.2222,-2.2239,-2.2275,-2.229,-2.2337,-2.2358,-2.2387,-2.2405,-2.2413,-2.2429,-2.2436,-2.2425,-2.2423,-2.2434,-2.2435,-2.2453,-2.2453,-2.2453,-2.2453,0,-2.1975,-2.2012,-2.2035,-2.2083,-2.2096,-2.2104,-2.2145,-2.2158,-2.2187,-2.2208,-2.2216,-2.226,-2.2287,-2.2325,-2.2364,-2.2383,-2.2397,-2.241,-2.2385,-2.2389,-2.2382,-2.2382,-2.2356,-2.2354,-2.2399,-2.2399,-2.2398,0,-2.1959,-2.197,-2.2018,-2.2032,-2.2053,-2.2076,-2.2094,-2.2134,-2.2151,-2.2192,-2.22,-2.2229,-2.2255,-2.2296,-2.2332,-2.2361,-2.2374,-2.2363,-2.2378,-2.2367,-2.2372,-2.2371,-2.2372,-2.2358,-2.2358,-2.2357,-2.2357,0,-2.1927,-2.1945,-2.1969,-2.2,-2.202,-2.2046,-2.2074,-2.2084,-2.213,-2.2148,-2.2175,-2.2195,-2.2234,-2.2262,-2.2297,-2.232,-2.2346,-2.2351,-2.2352,-2.234,-2.2325,-2.2332,-2.2374,-2.2352,-2.2352,-2.2352,-2.2353,-2.2353,-2.1898,-2.1908,-2.1944,-2.197,-2.1995,-2.202,-2.2034,-2.2064,-2.2087,-2.2122,-2.2145,-2.2171,-2.2206,-2.2254,-2.2276,-2.2297,-2.2308,-2.2309,-2.2309,-2.2308,-2.2303,-2.2322,-2.2304,-2.2304,-2.2304,-2.2304,-2.2305,0,-2.1867,-2.1891,-2.1915,-2.1952,-2.1972,-2.1995,-2.2026,-2.2042,-2.2064,-2.2094,-2.2119,-2.215,-2.2178,-2.2215,-2.2246,-2.2255,-2.2268,-2.2262,-2.2261,-2.2266,-2.2293,-2.2289,-2.2251,-2.2251,-2.2251,-2.2251,-2.2251,-2.2251,-2.1853,-2.1871,-2.1893,-2.1924,-2.1949,-2.1975,-2.1991,-2.2014,-2.2038,-2.2071,-2.2094,-2.2119,-2.2152,-2.2185,-2.2211,-2.2222,-2.2231,-2.2221,-2.2235,-2.2259,-2.2264,-2.2269,-2.2265,-2.2223,-2.2223,-2.2206,-2.2206,-2.2206]},{"header":{"parameterUnit":"m.s-1","parameterCategory":1,"la1":30.2991,"la2":30.254,"lo1":-89.0895,"lo2":-89.0444,"dy":0.0017,"dx":0.0017,"nx":28,"ny":28,"refTime":"2023-04-01T21:00:00:Z","depth":0,"parameterNumber":3,"parameterNumberName":"V-component_of_WINDS"},"data":[0,0,0,0,0,0,0,0,0,0,0,0,0,0,0,0,0,0,0,0,0,0,0,0,0,0,0,0,0,0,0,0,0,0,0,0,0,0,0,0,0,0,0,0,0,0,0,0,0,0,0,0,0,0,0,0,0,0,4.5193,4.5194,0,4.5272,4.5273,4.5274,4.5257,4.5256,4.5254,4.5253,4.5333,4.5337,4.534,0,0,0,0,0,0,0,0,0,0,0,0,0,4.5027,4.503,4.5193,4.5194,4.5195,4.5272,4.5273,4.5274,4.5258,4.5256,4.5254,4.5252,4.5332,4.5336,4.534,0,0,0,0,0,0,0,0,0,0,0,0,0,4.5102,4.5031,4.5192,4.5196,4.5197,4.5272,4.5273,4.5275,4.5258,4.5256,4.5254,4.5251,4.5331,4.5336,4.5341,4.5417,0,0,4.5357,4.5359,0,0,0,0,0,0,0,0,4.5097,4.5108,4.5194,4.5196,4.5197,4.5253,4.5244,4.5322,4.5259,4.5235,4.5253,4.525,4.5308,4.5315,4.5335,4.5421,4.5425,4.5357,4.5361,4.5363,4.5364,0,0,0,0,0,0,0,4.5092,4.5104,4.5224,4.5195,4.5197,4.5193,4.5201,4.5259,4.5283,4.5237,4.5236,4.5245,4.5308,4.533,4.5337,4.5426,4.5357,4.5362,4.5365,4.5367,4.5582,4.5584,0,0,0,0,0,0,4.5086,4.51,4.5222,4.5226,4.5141,4.5198,4.5207,4.5237,4.5282,4.5287,4.5247,4.5244,4.5322,4.533,4.5339,4.5434,4.5363,4.5368,4.5371,4.5579,4.5582,4.5585,0,0,0,0,0,0,4.5082,4.5097,4.5218,4.5163,4.5178,4.5203,4.5237,4.524,4.5261,4.529,4.5294,4.5265,4.532,4.5332,4.5399,4.5436,4.537,4.5375,4.5576,4.558,4.5584,4.5622,0,0,0,0,0,0,4.5078,4.5096,4.5125,4.5164,4.5181,4.5277,4.5239,4.5243,4.527,4.5267,4.5307,4.5312,4.532,4.5391,4.5404,4.5442,4.5379,4.5573,4.5578,4.5582,4.5618,4.5627,4.5635,0,0,0,0,0,4.5072,4.5132,4.5126,4.5141,4.5218,4.5279,4.5289,4.5297,4.5273,4.5303,4.5322,4.5311,4.543,4.5398,4.5413,4.5453,4.5571,4.5576,4.5582,4.5614,4.5625,4.5635,0,0,0,0,0,0,4.5096,4.5137,4.5131,4.5206,4.5239,4.5276,4.5314,4.5308,4.5348,4.5344,4.5351,4.536,4.5429,4.5447,4.5411,4.5531,4.5497,4.5506,4.5516,4.5527,4.5535,4.553,4.5383,0,0,0,0,0,4.511,4.5156,4.5189,4.5251,4.5268,4.5288,4.5315,4.5318,4.5353,4.5367,4.539,4.5424,4.547,4.5499,4.5542,4.562,4.563,4.5655,4.5664,4.567,4.5678,4.5723,4.5736,4.5604,4.5604,4.5604,0,0,4.5139,4.5167,4.5195,4.5257,4.5283,4.5331,4.53,4.5351,4.5387,4.5374,4.544,4.5458,4.5497,4.557,4.5604,4.5588,4.5717,4.5678,4.5683,4.5687,4.573,4.5743,4.5754,4.5608,4.5607,4.5606,0,0,4.5217,4.5242,4.5298,4.5326,4.5366,4.5379,4.5393,4.5431,4.5443,4.5509,4.5501,4.5544,4.5621,4.5649,4.5674,4.5765,4.5757,4.5779,4.5823,4.5867,4.5877,4.5887,4.5921,4.5933,4.5786,4.5786,4.5786,0,4.5248,4.532,4.5328,4.5381,4.5409,4.54,4.5458,4.5483,4.5536,4.5555,4.5537,4.5635,4.566,4.5741,4.5764,4.5783,4.58,4.5774,4.5875,4.5885,4.5894,4.5927,4.5939,4.5789,4.5789,4.5788,4.5788,0,4.5358,4.5408,4.5448,4.55,4.5533,4.5587,4.5604,4.5636,4.5636,4.5652,4.572,4.575,4.58,4.5819,4.582,4.5901,4.589,4.5873,4.584,4.5909,4.594,4.5952,4.5793,4.5792,4.5791,4.579,0,0,4.5453,4.551,4.5525,4.5549,4.5594,4.5633,4.5688,4.5738,4.5766,4.5802,4.5849,4.5916,4.5901,4.5929,4.5933,4.5971,4.6044,4.595,4.5951,4.5968,4.6138,4.6152,4.6166,4.6039,4.6041,4.6043,4.6136,0,4.5537,4.5635,4.5644,4.5731,4.5779,4.5772,4.582,4.5853,4.5869,4.5911,4.5929,4.5977,4.5953,4.597,4.6007,4.6027,4.6079,4.6021,4.6084,4.6086,4.6076,4.6182,4.6196,4.6282,4.6147,4.615,4.6151,0,4.5648,4.5689,4.5782,4.5822,4.5842,4.5885,4.5933,4.5973,4.6011,4.602,4.6052,4.6052,4.6109,4.6073,4.6153,4.6113,4.6139,4.6153,4.6157,4.6164,4.6124,4.6194,4.631,4.6323,4.617,4.6168,4.6167,0,4.5711,4.579,4.5856,4.5877,4.5924,4.5955,4.5976,4.6012,4.6042,4.6083,4.6103,4.615,4.6176,4.6213,4.6226,4.6198,4.6306,4.627,4.6316,4.6316,4.634,4.6339,4.6464,4.6354,4.6354,4.6354,4.6354,0,4.5805,4.5862,4.5885,4.5926,4.5991,4.6001,4.6064,4.6084,4.6116,4.6161,4.6157,4.62,4.6213,4.6258,4.6267,4.6334,4.6345,4.6354,4.6357,4.6356,4.6355,4.6374,4.6369,4.6357,4.6356,4.6356,4.6355,0,4.5887,4.5904,4.5976,4.6016,4.6027,4.6074,4.6108,4.6148,4.6163,4.622,4.6234,4.6259,4.6312,4.6328,4.6391,4.6398,4.6476,4.6471,4.6463,4.6464,4.651,4.6506,4.6653,4.6674,4.6549,4.655,4.6551,0,4.5946,4.5991,4.6036,4.6066,4.6089,4.6137,4.6169,4.618,4.6213,4.626,4.6295,4.6347,4.639,4.6475,4.6498,4.6547,4.6545,4.6593,4.6553,4.6551,4.6549,4.6547,4.6552,4.6601,4.6603,4.6604,4.6605,0,4.6051,4.6058,4.6103,4.6152,4.619,4.6228,4.6266,4.629,4.6308,4.6344,4.6399,4.6432,4.6498,4.6551,4.66,4.6622,4.6618,4.6617,4.6631,4.6631,4.6626,4.6632,4.6486,4.6614,4.6613,4.6612,4.6612,4.6612,4.6126,4.6166,4.6204,4.6255,4.6284,4.632,4.636,4.6381,4.6427,4.6482,4.6485,4.6545,4.6583,4.665,4.6674,4.6722,4.6708,4.6727,4.6732,4.6737,4.6742,4.6617,4.673,4.673,4.673,4.673,4.6729,0,4.6232,4.6257,4.6304,4.6357,4.6397,4.6388,4.643,4.6464,4.6517,4.6553,4.6595,4.6659,4.6711,4.6739,4.679,4.6823,4.6822,4.6836,4.6835,4.6841,4.675,4.6735,4.6836,4.6836,4.6836,4.6836,4.6836,4.6836,4.6293,4.6361,4.6372,4.6455,4.6479,4.6538,4.6563,4.6596,4.6625,4.6696,4.674,4.6757,4.6791,4.6845,4.6892,4.6899,4.6919,4.6936,4.6942,4.6857,4.6846,4.6836,4.6821,4.694,4.694,4.7028,4.7029,4.7029]}]]